Weather Roundup
Issued by NWS

Home | Current Version | Previous Version | Text Only | Print | Product List | Glossary On
Versions: 1 2 3 4 5 6 7 8 9 10 11 12 13 14 15 16 17 18 19 20 21 22 23 24 25 26 27 28 29 30 31 32 33 34 35 36 37 38 39 40 41 42 43 44 45 46 47 48 49 50
501
NZUS93 KARX 310559
HRRWXR

CURRENT HOURLY OBSERVATIONS ACROSS
MUCH OF THE UPPER MISSISSIPPI VALLEY
NATIONAL WEATHER SERVICE LA CROSSE WI
100 AM CDT SUN JUL 31 2016


...SOUTHEAST MINNESOTA...


CITY           SKY/WX    TMP DP  RH WIND       PRES   REMARKS
ROCHESTER      CLOUDY    67  65  93 SE8       30.03S
ROCHESTER/MAYO CLOUDY    69  64  84 SE6       30.03S
WINONA         MOCLDY    70  66  88 SE3       30.03R
AUSTIN         PTCLDY    64  61  88 CALM      30.01F
ALBERT LEA     CLEAR     64  64 100 CALM      30.01F
DODGE CENTER   PTCLDY    64  63  94 SE7       30.02F
PRESTON        CLOUDY    67  61  80 SE5       30.04S
OWATONNA       CLEAR     64  63  94 SE5       30.01S
FARIBAULT      CLEAR     66  63  88 CALM      30.00F
$$

...ELSEWHERE IN MINNESOTA...


CITY           SKY/WX    TMP DP  RH WIND       PRES   REMARKS
MINNEAPOLIS    PTCLDY    70  64  81 SE6       30.00S
INTNL FALLS    CLEAR     59  57  93 SE3       29.99S
DULUTH         PTCLDY    60  59  96 E6        30.04R
RED WING       CLEAR     64  64 100 CALM      30.00S
REDWOOD FALLS  CLEAR     64  61  90 SE7       29.96S
MANKATO        CLEAR     66  59  77 SE6       29.99S
WORTHINGTON    PTCLDY    65  62  90 SE5       30.00R
FAIRMONT       CLEAR     64  61  88 SE5       29.98F
$$

...SOUTHWEST WISCONSIN...


CITY           SKY/WX    TMP DP  RH WIND       PRES   REMARKS
LA CROSSE      CLEAR     69  63  81 E5        30.03R
PRAIRIE DU CHI   N/A     65  63  92 CALM      30.03R
BOSCOBEL       FOG       62  61  96 CALM      30.04S VSB 1/2
LONE ROCK      NOT AVBL
PLATTEVILLE    CLEAR     64  61  92 E5        30.05R
FORT MC COY    PTCLDY    61  60  97 CALM      30.05S
CAMP DOUGLAS   CLEAR     57  57 100 CALM      30.05S
MAUSTON-NEW LI CLEAR     59  59  99 CALM      30.04S
VIROQUA        FAIR      63  60  91 CALM      30.06R
WIS DELLS      NOT AVBL
$$

...ELSEWHERE IN WISCONSIN...


CITY           SKY/WX    TMP DP  RH WIND       PRES   REMARKS
MILWAUKEE      PTCLDY    68  65  90 N6        30.02S
MADISON        CLEAR     59  57  93 CALM      30.03F
GREEN BAY      CLEAR     57  57 100 CALM      30.04F
EAU CLAIRE     NOT AVBL
BLACK RVR FLS  FAIR      59  59 100 CALM      30.04S
MEDFORD        PTCLDY    60  54  80 SE5       30.08S
WAUSAU         CLEAR     59  53  80 CALM      30.06F
WIS RAPIDS     PTCLDY    58  52  80 CALM      30.07S
MARSHFIELD     CLEAR     62  54  74 E3        30.06F
RICE LAKE      CLEAR     66  61  85 SE6       30.06R
$$

...NORTHEAST IOWA...


CITY           SKY/WX    TMP DP  RH WIND       PRES   REMARKS
WATERLOO       CLEAR     64  62  93 E3        30.00F
DUBUQUE          N/A    N/A N/A N/A MISG      30.04R
DECORAH        CLOUDY    66  64  94 SE5       30.03S
MASON CITY     LGT RAIN  69  67  93 S10       30.03S FOG
CHARLES CITY   PTCLDY    66  66 100 E6        30.03S
OELWEIN        PTCLDY    64  63  94 E5        30.04S
$$

...ELSEWHERE IN IOWA...


CITY           SKY/WX    TMP DP  RH WIND       PRES   REMARKS
DES MOINES     CLEAR     71  65  81 SE6       29.99S
IOWA CITY      CLEAR     69  66  90 SE3       30.02R
FORT DODGE     CLEAR     64  63  94 E5        30.00S
MARSHALLTOWN   CLEAR     65  64  97 E7        30.00S
CEDAR RAPIDS   CLEAR     67  67 100 SE3       30.01R
$$

...NORTHERN ILLINOIS...


CITY           SKY/WX    TMP DP  RH WIND       PRES   REMARKS
CHICAGO-OHARE  PTCLDY    69  64  84 N3        30.00S
CHICAGO-MIDWAY PTCLDY    73  65  75 E6        30.00S
MOLINE         CLEAR     70  65  84 E8        30.01R
ROCKFORD       CLEAR     65  60  84 CALM      30.05R
PEORIA         PTCLDY    71  69  93 E7        30.01R
$$

NOTE: "FAIR" INDICATES FEW OR NO CLOUDS BELOW 12,000 FEET WITH NO
SIGNIFICANT WEATHER AND/OR OBSTRUCTIONS TO VISIBILITY. WIND
SPEEDS ARE IN MILES-PER-HOUR.




USA.gov is the U.S. government's official web portal to all federal, state and local government web resources and services.